Flag Weather past 2 weeks in Nagoya, Japan

Now
66 °F

Broken clouds.


Feels Like: 66 °F
Forecast: 59 / 68 °F
Wind: 3 mph from Northeast

Location: Nagoya Airport

Current Time: Oct 31, 2014 at 8:58:38 AM

Latest Report: Oct 31, 2014 at 8:30 AM


Visibility: 5 mi

Pressure: 30.21 "Hg

Humidity: 73%

Dew point: 57 °F

Location of NagoyaLocation

Historic Weather in Nagoya — Graph

°F

Nagoya temperature yesterday

Maximum temperature yesterday: 68 °F (at 2:00 PM)
Minimum temperature yesterday: 55 °F (at 12:00 AM)
Average temperature yesterday: 61 °F

Past Weeks' High & Low Weather Summary

 TemperatureHumidityPressure
High72 °F (Oct 20, 9:30 AM)100% (Oct 20, 6:00 PM)30.33 "Hg (Oct 20, 6:00 PM)
Low52 °F (Oct 29, 4:30 AM)20% (Oct 18, 3:00 PM)29.77 "Hg (Oct 22, 1:00 PM)
Average64 °F70%30.11 "Hg
* Reported Oct 16 7:00 AM — Oct 31 7:30 AM, Nagoya, Weather by CustomWeather, © 2014

Note: Actual official high and low records may vary slightly from our data, if they occured in-between our weather recording intervals... More about our weather records

Advertising

Nagoya weather history for previous 24 hours

 ConditionsComfort  
Time TempWeatherWind HumidityBarometerVisibility
7:30 AM
Oct 31
64 °FBroken clouds.9 mph78%30.24 "Hg6 mi
7:00 AM64 °FPartly sunny.8 mph83%30.24 "HgN/A
6:30 AM63 °FBroken clouds.8 mph83%30.21 "HgN/A
6:00 AM64 °FPassing clouds.10 mph78%30.21 "HgN/A
5:30 AM63 °FPartly cloudy.10 mph88%30.21 "HgN/A
5:00 AM64 °FPassing clouds.9 mph83%30.21 "HgN/A
4:30 AM64 °FPassing clouds.12 mph78%30.21 "HgN/A
4:00 AM64 °FScattered showers. Passing clouds.9 mph78%30.21 "HgN/A
3:30 AM64 °FPassing clouds.9 mph83%30.21 "HgN/A
3:00 AM64 °FPassing clouds.8 mph78%30.21 "Hg6 mi
2:30 AM63 °FPassing clouds.7 mph83%30.21 "Hg6 mi
2:00 AM64 °FPassing clouds.8 mph78%30.24 "Hg6 mi
1:30 AM64 °FPassing clouds.9 mph78%30.24 "HgN/A
1:00 AM64 °FPassing clouds.9 mph78%30.24 "Hg6 mi
12:30 AM63 °FPassing clouds.7 mph88%30.24 "Hg6 mi
12:00 AM63 °FPassing clouds.7 mph83%30.24 "HgN/A
11:30 PM
Oct 30
63 °FPassing clouds.7 mph83%30.24 "HgN/A
11:00 PM63 °FPartly cloudy.7 mph77%30.27 "HgN/A
10:30 PM64 °FPassing clouds.6 mph73%30.27 "HgN/A
10:00 PM63 °FPassing clouds.7 mph77%30.27 "HgN/A
9:30 PM63 °FPassing clouds.3 mph77%30.27 "HgN/A
9:00 PM64 °FPassing clouds.5 mph78%30.27 "HgN/A
8:30 PM64 °FPartly cloudy.5 mph78%30.27 "HgN/A
8:00 PM66 °FPartly cloudy.3 mph73%30.27 "HgN/A
7:30 PM64 °FPassing clouds.3 mph73%30.27 "HgN/A
7:00 PM66 °FPartly cloudy.2 mph68%30.27 "HgN/A
6:30 PM66 °FScattered showers. Partly cloudy.1 mph68%30.27 "HgN/A
6:00 PM66 °FScattered showers. Passing clouds.2 mph64%30.27 "HgN/A
5:30 PM66 °FPassing clouds.2 mph60%30.27 "HgN/A
5:00 PM66 °FPassing clouds.5 mph60%30.24 "HgN/A
4:30 PM66 °FPartly sunny.5 mph60%30.27 "HgN/A
4:00 PM66 °FScattered clouds.6 mph60%30.27 "HgN/A
3:30 PM66 °FPartly sunny.6 mph56%30.27 "HgN/A
3:00 PM66 °FPartly sunny.6 mph52%30.27 "HgN/A
2:30 PM68 °FPartly sunny.6 mph49%30.27 "HgN/A
2:00 PM68 °FScattered clouds.6 mph49%30.27 "HgN/A
1:30 PM66 °FPartly sunny.7 mph52%30.27 "HgN/A
1:00 PM66 °FPartly sunny.7 mph52%30.27 "HgN/A
12:30 PM64 °FPartly sunny.8 mph56%30.27 "HgN/A
12:00 PM64 °FPassing clouds.6 mph52%30.30 "HgN/A
11:30 AM63 °FPartly sunny.7 mph56%30.30 "HgN/A
11:00 AM63 °FPartly sunny.7 mph52%30.33 "HgN/A
10:30 AM61 °FScattered clouds.7 mph55%30.33 "HgN/A
10:00 AM61 °FPartly sunny.8 mph59%30.33 "HgN/A
9:30 AM61 °FScattered clouds.9 mph55%30.33 "HgN/A
9:00 AM59 °FPartly sunny.12 mph59%30.33 "HgN/A
8:30 AM59 °FPartly sunny.14 mph55%30.33 "HgN/A
8:00 AM57 °FPartly sunny.14 mph59%30.33 "HgN/A
Weather by CustomWeather, © 2014

See weather overviewHow to use our weather pages